星链-34386(STARLINK-34386)

导读 | 豆包AI

STARLINK-34386是美国于2025年10月19日发射的星链系列卫星,星链计划是美国太空探索技术公司打造的低轨卫星互联网项目,该卫星承担着为全球多地提供高速互联网接入服务的任务,进一步扩充了星链卫星星座的规模,推进了星链系统全球覆盖的进程。

基本信息
目录编号:
66096
目录名称:
STARLINK-34386
国际标识:
2025-236L
轨道中心:
EARTH
卫星名称:
星链-34386
卫星全名:
星链-34386(STARLINK-34386)
卫星状态:
在轨 (已飞行192 天)
发射日期:
2025-10-19 UTC
国别 :
美国 (US)
星等 :
--
轨道信息
数据来源 国际轨道数据
星历时间: 2026-04-29T00:36:21+0800
14小时前
查看轨道信息
半长轴: 6853.304km
偏心率: 0.0001528
轨道倾角: 53.160°
近地点辐角 69.080°
升交点赤经 231.367°
平近点角 291.036°
近地点: 474.119km
远地点: 476.215km
周期: 94.104分钟
每日圈数: 15.302164
详细信息
固有亮度:
5
最大亮度:
2.5
卫星平台:
Starlink V1.0
覆盖范围:
全球
运营商:
太空探索技术公司
运营商所在国:
美国
制造商(研发单位):
太空探索技术公司
制造商所在国:
美国
使用方式:
暂无
卫星简介
Starlink 计划是 SpaceX 推出的全球卫星互联网项目,通过发射低轨道卫星,为全球尤其是偏远地区提供高速、低延迟的互联网服务。自 2019 年起,Starlink 已部署数千颗卫星,旨在缩小全球数字鸿沟,推动互联网普及。该项目还为军事、航空等行业提供通信支持,带来广泛经济效益。
2D轨道图
3D轨道图
轨道高度分析图
轨道倾角分析图
轨道综合分析图
查看轨道综合分析图